Location: Ferchesar
(52.6477°N, 12.4298°E)
Time: 20:47:31
(UTC+02:00)

Tiros 1 despin weight - Pass Details

Date: 04 March 2021
Orbit: 593 x 641 km, 48.2° (Epoch: 17 April)

Event Time Altitude Azimuth Distance (km) Brightness Sun altitude
Exits shadow 03:22:06 14° 121° (ESE) 1,779 ? -31.0°
Drops below altitude 10° 03:22:47 10° 118° (ESE) 2,029 ? -30.9°
Sets 03:25:11 0° 113° (ESE) 2,939 ? -30.6°
